CW0608 Weather Reports


Display with metric or nautical units.
time (UTC)temp
F
wind
direction
speed
MPH
gust
MPH
rain 1hr
in
rain 24hr
in
rain mn
in
humidity
%
barometer
mb
20260504191804 73 155 4.0 12.0 0.00 0.00 0.00 43 1012.4
20260504191304 74 105 5.0 10.0 0.00 0.00 0.00 41 1012.5
20260504185805 74 133 4.0 12.0 0.00 0.00 0.00 44 1012.7
20260504183804 74 151 6.0 14.0 0.00 0.00 0.00 39 1012.8
20260504181804 73 134 6.0 15.0 0.00 0.00 0.00 40 1012.8
20260504181304 73 155 9.0 15.0 0.00 0.00 0.00 40 1012.9
20260504175804 73 218 5.0 16.0 0.00 0.00 0.00 41 1013.0
20260504174304 73 168 5.0 10.0 0.00 0.00 0.00 37 1013.2
20260504173803 73 213 5.0 10.0 0.00 0.00 0.00 42 1013.4
20260504172304 72 159 3.0 10.0 0.00 0.00 0.00 42 1013.7
20260504170803 71 179 2.0 13.0 0.00 0.00 0.00 39 1013.7
20260504150303 65 195 5.0 9.0 0.00 0.00 0.00 45 1014.9
20260504130803 57 185 5.0 8.0 0.00 0.00 0.00 57 1015.7
20260504130303 57 200 2.0 7.0 0.00 0.00 0.00 58 1015.7
20260504120304 54 191 3.0 5.0 0.00 0.00 0.00 66 1015.9
20260504081805 41 241 0.0 0.0 0.00 0.00 0.00 89 1016.4
20260504080806 41 241 0.0 0.0 0.00 0.00 0.00 89 1016.5
20260504050306 41 255 0.0 0.0 0.00 0.00 0.00 86 1016.5
20260504045805 41 255 0.0 2.0 0.00 0.00 0.00 86 1016.6
20260504044805 41 255 1.0 2.0 0.00 0.00 0.00 86 1016.7
20260504043805 41 255 0.0 1.0 0.00 0.00 0.00 84 1016.7
20260504043305 41 255 1.0 2.0 0.00 0.00 0.00 84 1016.7
20260504042805 41 255 0.0 3.0 0.00 0.00 0.00 84 1016.6
20260504041305 41 255 1.0 3.0 0.00 0.00 0.00 85 1016.4
20260504040814 41 255 1.0 3.0 0.00 0.00 0.00 84 1016.3
20260504040306 42 255 1.0 2.0 0.00 0.00 0.00 83 1016.3
20260504035805 42 255 1.0 3.0 0.00 0.00 0.00 81 1016.5
20260504035305 42 255 1.0 3.0 0.00 0.00 0.00 80 1016.5
20260504034805 43 255 0.0 2.0 0.00 0.00 0.00 79 1016.4
20260504034305 43 255 0.0 3.0 0.00 0.00 0.00 79 1016.4
20260504031804 43 255 1.0 2.0 0.00 0.00 0.00 79 1016.2
20260504030804 43 255 0.0 1.0 0.00 0.00 0.00 80 1016.1
20260504025805 44 255 0.0 2.0 0.00 0.00 0.00 76 1016.2
20260504022305 45 255 1.0 2.0 0.00 0.00 0.00 71 1016.0
20260504015806 47 255 0.0 2.0 0.00 0.00 0.00 68 1016.1
20260504013806 48 255 2.0 2.0 0.00 0.00 0.00 66 1016.1
20260504013305 48 255 0.0 0.0 0.00 0.00 0.00 65 1016.0
20260504011805 48 255 0.0 0.0 0.00 0.00 0.00 64 1015.9
20260504011305 49 255 0.0 0.0 0.00 0.00 0.00 64 1015.9
20260504010805 49 255 0.0 0.0 0.00 0.00 0.00 62 1015.8
20260504004805 50 255 0.0 0.0 0.00 0.00 0.00 60 1015.7
20260504004305 50 255 0.0 0.0 0.00 0.00 0.00 58 1015.6
20260504003306 52 255 0.0 0.0 0.00 0.00 0.00 55 1015.5
20260504002804 52 255 0.0 0.0 0.00 0.00 0.00 54 1015.5
20260504002304 52 255 0.0 0.0 0.00 0.00 0.00 54 1015.3
20260504001805 52 255 0.0 0.0 0.00 0.00 0.00 53 1015.3
20260504000806 54 255 0.0 3.0 0.00 0.00 0.00 53 1015.1
20260503235805 55 255 1.0 2.0 0.00 0.00 0.00 47 1015.1
20260503235304 55 255 0.0 3.0 0.00 0.00 0.00 49 1015.0
20260503234805 56 255 0.0 3.0 0.00 0.00 0.00 48 1014.9
20260503234304 56 255 0.0 3.0 0.00 0.00 0.00 48 1015.0
20260503233805 57 255 1.0 5.0 0.00 0.00 0.00 45 1014.8
20260503232306 58 259 1.0 10.0 0.00 0.00 0.00 41 1014.7
20260503231805 59 264 5.0 10.0 0.00 0.00 0.00 38 1014.8
20260503230305 60 299 2.0 12.0 0.00 0.00 0.00 38 1014.8
20260503225805 60 260 6.0 14.0 0.00 0.00 0.00 37 1014.8
20260503225305 60 231 7.0 14.0 0.00 0.00 0.00 36 1014.8
20260503224805 60 274 5.0 12.0 0.00 0.00 0.00 36 1014.9
20260503223804 61 242 3.0 8.0 0.00 0.00 0.00 36 1014.8
20260503223305 61 250 3.0 8.0 0.00 0.00 0.00 36 1014.8
20260503222806 61 288 3.0 7.0 0.00 0.00 0.00 39 1014.8
20260503222304 61 268 3.0 8.0 0.00 0.00 0.00 36 1014.8
20260503220804 61 269 5.0 15.0 0.00 0.00 0.00 34 1014.9
20260503220304 61 285 6.0 12.0 0.00 0.00 0.00 35 1014.9
20260503215304 61 287 4.0 16.0 0.00 0.00 0.00 34 1014.8
20260503214304 61 273 6.0 16.0 0.00 0.00 0.00 35 1014.9
20260503212806 62 306 3.0 16.0 0.00 0.00 0.00 33 1014.9
20260503212305 62 284 7.0 16.0 0.00 0.00 0.00 33 1014.8
20260503204805 62 283 7.0 16.0 0.00 0.00 0.00 35 1015.0
20260503203805 61 269 5.0 14.0 0.00 0.00 0.00 36 1015.0
20260503203304 61 288 3.0 15.0 0.00 0.00 0.00 37 1015.0
20260503195805 62 246 7.0 16.0 0.00 0.00 0.00 35 1015.3
20260503195305 61 322 5.0 20.0 0.00 0.00 0.00 37 1015.4
20260503194806 61 315 9.0 20.0 0.00 0.00 0.00 37 1015.5